COSMOS 1275 DEB, 42181

Orbit data source: Space-Track

COSMOS 1275 DEB, 42181 is space debris in LEO originally from a launch on Thu, 04 Jun 1981 UTC launched from the Plesetsk Missile And Space Complex (PKMTR). Debris objects in space refer to the collection of defunct objects orbiting the Earth. Examples of debris include non-operational satellites, rocket bodies, and fragments generated from explosions, collisions, or faulty payload assembly.

Loading next visibility...
COSMOS 1275 DEB details
Identifier
42181, 1981-053SV
Orbit
LEO
Last TLE update7 hours ago
Origin
Flag of CISGUKOS (CIS)
ManufacturerUnknown
MissionSpacecraft
Bus & MotorUnknown
MassUnknown
Launch date (UTC)
1981-06-04 (44 years ago)
Launch vehicleUnknown
Launch site
Plesetsk Missile And Space Complex (PKMTR)
Object type
Payload
Rocket body
Debris
Shape & HBRUnknown
Radar Cross SectionSmall (<0.1 m²)

Expand to show TLE details & history

TLE from 7 hours ago
0 COSMOS 1275 DEB
1 42181U 81053SV  24348.12646666  .00003069  00000-0  23164-2 0  9997
2 42181  82.8998 134.6138 0077976 247.8902 111.3973 13.92439049  2197
Epoch: 2024-12-13T03:02Z
Definitive object data (Epoch: 2024-12-13T03:02:06.719Z)
Latitude0.00002°
Longitude6.78889°
Altitude944.168 km
Speed7.369 km/s
True Right ascension08h 58m 27s
True Declination0° 00' 00"
Sunlit
Object was in full shadow at TLE epoch
Visualization TLE readout
Latitude-33.1339°
Longitude1.9343°
Altitude921.991 km
Speed7.395 km/s
Apparent Right ascension10h 04m 25s
Apparent Declination-80° 34' 11"
Sunlit
Object is in daylight
Visualization observer readout
Local Sidereal Time08:16:15
Azimuth174.993° S
Elevation-31.404°
Doppler factor1
Orbital elements
Apogee altitude974.108 km
Perigee altitude860.336 km
Semi-major axis7,295.359 km
Eccentricity0.0077976
Inclination82.8998°
RAAN134.6138°
Arg. of periapsis247.8902°
True anomaly112.22627°
Mean anomaly111.3973°
Eccentric anomaly111.81208°
Mean motion3.48316 °/min
BSTAR0.0023164
Orbital period103.35 mins
Loading maneuver chart data...
Loading historical data...
Loading historical data...
Loading historical data...
Loading historical data...
Loading historical data...
Loading historical data...
Loading historical data...

COSMOS 1275 DEB Visibility forecast

Observer location: undefined°, undefined

Span
Click to sort rows by Start time (UTC) header in descending order
Start Az.
Max El. time (UTC)
Max El. Az.
Max El.
End time (UTC)
End Az.
10 mins2024-12-13 10:02:25.859Z153.63° SSE2024-12-13 10:07:25.859Z92.276° ESE32.563°2024-12-13 10:12:25.859Z25.895° NE
8 mins2024-12-13 11:48:25.859Z239.742° WSW2024-12-13 11:51:25.859Z279.515° WNW26.376°2024-12-13 11:56:25.859Z341.857° N
8 mins2024-12-13 20:53:25.859Z28.426° NE2024-12-13 20:56:25.859Z67.719° E24.694°2024-12-13 21:01:25.859Z128.227° SE
10 mins2024-12-13 22:36:25.859Z334.251° NNW2024-12-13 22:41:25.859Z261.037° W33.071°2024-12-13 22:46:25.859Z203.152° SW
|